Regional Weather Roundup
Issued by NWS

Home | Current Version | Previous Version | Text Only | Print | Product List | Glossary Off
Versions: 1 2 3 4 5 6 7 8 9 10 11 12 13 14 15 16 17 18 19 20 21 22 23 24 25 26 27 28 29 30 31 32 33 34 35 36 37 38 39 40 41 42 43 44 45 46 47 48 49 50

000
ASUS43 KTOP 290759
RWRKS

WEATHER ROUNDUP FOR KANSAS
NATIONAL WEATHER SERVICE GOODLAND KS
300 AM CDT FRI MAY 29 2015

NOTE:  "FAIR" INDICATES FEW OR NO CLOUDS BELOW 12,000 FEET WITH NO
SIGNIFICANT WEATHER AND/OR OBSTRUCTIONS TO VISIBILITY.

KSZ001>006-013>018-027>032-041>047-290900-
NORTHWEST KANSAS

CITY           SKY/WX    TMP DP  RH WIND       PRES   REMARKS
GOODLAND       MOCLDY    52  49  89 SW6       30.04F
HAYS           CLOUDY    59  52  77 N3        29.95R
HILL CITY      CLOUDY    57  54  89 W8        29.95S
RUSSELL        CLOUDY    60  58  92 E6        29.93R
$$

KSZ061>065-074>080-084>089-290900-
SOUTHWEST KANSAS

CITY           SKY/WX    TMP DP  RH WIND       PRES   REMARKS
DODGE CITY     MOCLDY    58  55  90 SE3       29.97R
ELKHART          N/A     56  52  87 NW5         N/A
GARDEN CITY    PTCLDY    52  52 100 W10       30.00R
GREAT BEND     CLOUDY    59  55  88 S6        29.94R
LIBERAL        CLOUDY    59  54  82 SE5       29.99R
$$

KSZ066>073-081>083-090>101-290900-
SOUTHEAST KANSAS

CITY           SKY/WX    TMP DP  RH WIND       PRES   REMARKS
CHANUTE        MOCLDY    68  66  93 SE8       29.91F
COFFEYVILLE    MOCLDY    69  67  93 SE9       29.91F
HUTCHINSON     CLOUDY    61  58  90 E3        29.91S
MEDICINE LODGE   N/A     61  57  87 CALM      29.91F
NEWTON         CLOUDY    63  61  94 E5        29.92F
PARSONS        MOCLDY    69  68  96 SE3       29.93F
WICHITA INTL   CLOUDY    66  65  96 CALM      29.90F
WICHITA JABRA  CLOUDY    64  64 100 SE3       29.89F
WINFIELD       MOCLDY    70  69  97 S9        29.90F
$$

KSZ007>012-019>026-033>040-048>060-102>105-290900-
NORTHEAST KANSAS

CITY           SKY/WX    TMP DP  RH WIND       PRES   REMARKS
CONCORDIA      CLOUDY    60  59  96 SE6       29.91S
EMPORIA        LGT RAIN  65  63  93 CALM      29.92F
LAWRENCE       CLOUDY    65  63  93 SE5       29.94F
MANHATTAN      LGT RAIN  67  66  97 E8        29.86F
OLATHE IND     CLOUDY    64  64 100 SE7       29.96R
OLATHE EXE     CLOUDY    63  63 100 S5        29.95R
SALINA         CLOUDY    63  59  87 W8        29.91S
TOPEKA BILLARD CLOUDY    66  65  96 E5        29.93F
TOPEKA FORBES  CLOUDY    67  64  90 E6        29.92F
$$



USA.gov is the U.S. government's official web portal to all federal, state and local government web resources and services.